Retour au catalogue

COSMOS 2251 DEB

ActifLEO
NORAD 34913·DEBRIS·🇷🇺 Russia

Lancé Jun 16, 1993 depuis Plesetsk Cosmodrome

Loading…

Prochains Passages (prochaines 24 heures)

TLE

FraisSource: Space-Track

Époque: Sep 13, 2026, 10:49 UTC

1 34913U 93036ADJ 26256.45073002  .00000068  00000-0  33246-4 0  9999
2 34913  74.0280 139.0346 0021259 188.5598 346.1281 14.34702690691278

Suivez COSMOS 2251 DEB en temps réel avec AllMySat

Download on the App Store